Skip Page Navigation
NASA JPL Caltech
NASA Logo - Jet Propulsion Laboratory + View the NASA Portal
+ Center for Near-Earth Object Studies
JPL Home Earth Solar System Stars & Galaxies Technology
JPL Solar System Dynamics
BODIES ORBITS EPHEMERIDES TOOLS PHYSICAL DATA DISCOVERY FAQ SITE MAP
JPL Small-Body Database Browser
Search: [ help ]  
52373 (1993 FO50)
Classification: Main-belt Asteroid          SPK-ID: 2052373
Ephemeris | Orbit Diagram | Orbital Elements | Mission Design | Physical Parameters | Discovery Circumstances ]

[ show orbit diagram ]
Orbital Elements at Epoch 2459200.5 (2020-Dec-17.0) TDB
Reference: JPL 27 (heliocentric ecliptic J2000)
 Element Value Uncertainty (1-sigma)   Units 
e .09862723065107365 3.4032e-08  
a 2.314199262699427 6.7404e-09 au
q 2.085956198244626 7.9031e-08 au
i 1.269111854947793 4.4961e-06 deg
node 330.6184305503505 0.0001351 deg
peri 144.6081912578941 0.00013673 deg
M 15.07201049623201 2.0692e-05 deg
tp 2459146.664563296516
(2020-Oct-24.16456330)
7.3892e-05 TDB
period 1285.877369717826
3.52
5.618e-06
1.538e-08
d
yr
n .2799644884325158 1.2232e-09 deg/d
Q 2.542442327154228 7.4052e-09 au
  Orbit Determination Parameters
   # obs. used (total)      848  
   data-arc span      10756 days (29.45 yr)  
   first obs. used      1991-10-09  
   last obs. used      2021-03-21  
   planetary ephem.      DE441  
   SB-pert. ephem.      SB441-N16  
   condition code      0  
   norm. resid. RMS      .54775  
   source      ORB  
   producer      Otto Matic  
   solution date      2021-May-04 06:18:11  

Additional Information
 Earth MOID = 1.10237 au 
 Jupiter MOID = 2.52074 au 
 T_jup = 3.575 
[ show covariance matrix ]

Ephemeris | Orbit Diagram | Orbital Elements | Mission Design | Physical Parameters | Discovery Circumstances ]

Physical Parameter Table
Parameter Symbol Value Units Sigma Reference Notes
absolute magnitude H 16.41   n/a MPCxxxxx  

52373 (1993 FO50)          Discovered 1993-Mar-19 by UESAC at La Silla
Reference: 20030216/Numbers.arcLast Updated: 2004-04-19

Alternate Designations
 1993 FO50 = 1998 SB151 
Ephemeris | Orbit Diagram | Orbital Elements | Mission Design | Physical Parameters | Discovery Circumstances ]
ABOUT SSD CREDITS/AWARDS PRIVACY/COPYRIGHT GLOSSARY LINKS
FirstGov 2021-Jun-18 06:53 UT
(server date/time)  
NASA Home Page
Site Manager:   Ryan S. Park
Webmaster  Alan B. Chamberlin